sat.trackr.live / text

‹ back to catalog

CONNECTA IOT-7

NORAD 62715 · 2025-009DL

PAYLOAD ACTIVE UNKNOWN

§ Identity

Operator
Country
TURK
Launch date
2025-01-14
Launch site
AFWTR
Launch vehicle
Mass (kg)
RCS (m²)

External: N2YO · Heavens-Above · Gunter

§ Orbital elements

Epoch: 2026-05-25T03:11:20.880384Z

Period
96.38 min
Inclination
97.7083°
Eccentricity
0.0000185
Mean motion
14.94126482 rev/d
Perigee alt
585.0 km
Apogee alt
585.2 km
Semi-major
6,963.2 km
B*
5.3010e-5
RAAN
224.3185°
Arg perigee
113.3148°
Mean anomaly
246.8091°
Rev number
7,390

§ Raw data

CONNECTA IOT-71 62715U 25009DL  26145.13288056  .00000511  00000+0  53010-4 0  99972 62715  97.7083 224.3185 0000185 113.3148 246.8091 14.94126482 73907

JSON: /api/v1/satellites/62715 · /tle

For live sub-satellite position, see the globe view (requires WebGL).

§ Visibility from observer

Set your observer location to see the next 7 days of passes ≥ 10°. The values pass through the URL so the page stays shareable.

No JS? Fill the form by hand. The geolocation button needs JavaScript.

§ Radio — SatNOGS DB

ModeDescriptionDownlinkUplink
GMSK Mode S - GMSK 4k8 AX.25 TLM 2.240 GHz
GMSK Mode U - GMSK 4k8 AX.25 TLM 401.530 MHz

2 transmitters · refreshed weekly from db.satnogs.org